"Pseudo-MPEC" for JAFb1Iy

Created 2023 Mar 19 13:22:12 UT using Find_Orb

Click here for an explanation of pseudo-MPECs

 
 Astrometry: 
     JAFb1Iy*!C2023 03 15v@(SPTNPLm8%mpU]XY4fYc+Y3j:s.AY*a;7kofuvY3!)0cCx(;3\W84
     JAFb1Iy !C2023 03 15(WP!er4p3P-YyMTu`hPfK`*g*\o`w\B9M[%EJOX\7S0FOJ4%79@AW84
     JAFb1Iy !C2023 03 15'JWP0T3-4LZJ+YtZkNq]'[)0+Astrometryq6v00q74NhD)U+q'?W84
     JAFb1Iy !C2023 03 15AgRoGDCr'KS059[K5k5-]I[KnZS6aM1(%'*I$*)0:?IOD^AZE$)'W84
     JAFb1Iy !C2023 03 15)wyc+i$X!-7\ka`mkDW`c5-?Vg4qyqHyZSh9eCFredacted;#Y7tW84
     JAFb1Iy !C2023 03 15^/I'v_4ooV4^M3Uu2j)U)HR)%2tC`X-$NV_%oMt?).#Vv2,biq+kW84
     JAFb1Iy !C2023 03 15JhK6bnvuUT#f9(5f#Tpe1;Df$/u`UyN5kNef*?ipXL+yO:InK)0IW84
     JAFb1Iy !C2023 03 15Jh$3=dh=lH,]wrI'7mclickQJ?6#HPLpV/YYH]mf!5)n^5Q[aUSHW84
     JAFb1Iy |C2023 03 17m#A]Zih,_D;@WOBov.p1kI[J*B%O'GR+2ksr*qh$NqGwm/HXUf(j807
     JAFb1Iy |C2023 03 176ffogP4nR?[wl-\cO`lFaC9KkrZ2TJ@6raRv!Uo6RCh%sOK?jo3o807
     JAFb1Iy |C2023 03 17:_OL9yOYj!AB#qw2@3?6W-*6A#[j6P+uZ1hY`H#;CF?nC+h1J%BX807
     JAFb1Iy |C2023 03 19uLnp)hereOatZFI:W8Mr`Q3]Q,+Nfor8s_bR'tM-CDkL_e,+4bL(807
     JAFb1Iy |C2023 03 19ZfYHIdT.ll(R/43]bu`f-yQm*enF8v[X/)(M76?^rqm-_*IZecrb807
     JAFb1Iy |C2023 03 19QeFpYlb/'Ar0#EHme`f6-Mu7P/mct/:`Ues!M]]explanationHU807

Station data:
(807) Cerro Tololo Observatory, La Serena  (S30.169133 W70.805900)  Chile.
   Observer R. Holmes. 0.61-m f/6.5 astrograph + CCD.
(W84) Cerro Tololo-DECam  (S30.169594 W70.806420)  Chile.  Observer F. Valdes.
    Measurer S. Deen. 4.0-m reflector + CCD.

Orbital elements:  JAFb1Iy
   Perihelion 2023 Mar 5.83977 +/- 0.243 TT = 20:09:16 (JD 2460009.33977)
Epoch 2023 Mar 19.0 TT = JDT 2460022.5   Earth MOID: 0.2235   Ma: 0.0695
M   4.06818723 +/- 0.07             (J2000 ecliptic)             AutoNEOCP
n   0.30912733 +/- 0.0108           Peri.  225.74496 +/- 0.47
a   2.16626262 +/- 0.0502           Node   302.75381 +/- 0.30
e   0.4489463 +/- 0.011             Incl.    7.44089 +/- 0.14
P   3.19                   H 24.18  G  0.15   U  9.7
q 1.19372687 +/- 0.00375    Q 3.13879837 +/- 0.0967
From 14 observations 2023 Mar. 15-19; mean residual 0".16
Residuals in arcseconds: 
230315 W84  .05-  .35+    230315 W84  .01+  .12+    230317 807  .01+  .23-    
230315 W84  .09+  .29-    230315 W84  .02-  .15+    230319 807  .15+  .09+    
230315 W84  .04-  .16+    230315 W84  .06-  .08-    230319 807  .00   .03-    
230315 W84  .11-  .07+    230317 807  .08-  .19+    230319 807  .16-  .05-    
230315 W84  .15+  .50-    230317 807  .09+  .06+    

Ephemerides (geocentric):
Date (UTC) HH   RA             Dec           delta  r     elong  mag " sig PA
---- --------  ------------   ------------  ------ ------ -----  --- --------
2023 03 19 13  11 45 01.570   -34 39 01.86  .24359 1.2024 144.6 22.8 .269  69
2023 03 19 14  11 45 03.933   -34 39 56.17  .24364 1.2025 144.6 22.8 .286  69
2023 03 19 15  11 45 06.296   -34 40 50.34  .24369 1.2025 144.6 22.8 .302  69
2023 03 19 16  11 45 08.660   -34 41 44.38  .24373 1.2026 144.6 22.8 .320  69
2023 03 19 17  11 45 11.024   -34 42 38.28  .24378 1.2026 144.6 22.8 .337  69
2023 03 19 18  11 45 13.389   -34 43 32.04  .24383 1.2027 144.6 22.8 .355  69
2023 03 19 19  11 45 15.754   -34 44 25.67  .24388 1.2027 144.6 22.8 .373  68
2023 03 19 20  11 45 18.120   -34 45 19.17  .24393 1.2028 144.6 22.8 .392  68
2023 03 19 21  11 45 20.486   -34 46 12.53  .24397 1.2028 144.6 22.8 .411  68
2023 03 19 22  11 45 22.853   -34 47 05.75  .24402 1.2029 144.6 22.8 .430  68
2023 03 19 23  11 45 25.220   -34 47 58.84  .24407 1.2030 144.6 22.8 .450  68
2023 03 20 00  11 45 27.588   -34 48 51.79  .24412 1.2030 144.6 22.8 .469  68
2023 03 20 01  11 45 29.957   -34 49 44.61  .24417 1.2031 144.6 22.8 .490  68
2023 03 20 02  11 45 32.325   -34 50 37.29  .24422 1.2031 144.6 22.8 .510  67
2023 03 20 03  11 45 34.695   -34 51 29.84  .24426 1.2032 144.6 22.8 .531  67
2023 03 20 04  11 45 37.065   -34 52 22.25  .24431 1.2032 144.6 22.8 .553  67
2023 03 20 05  11 45 39.435   -34 53 14.53  .24436 1.2033 144.6 22.8 .575  67
2023 03 20 06  11 45 41.806   -34 54 06.67  .24441 1.2033 144.6 22.8 .597  67
2023 03 20 07  11 45 44.178   -34 54 58.68  .24446 1.2034 144.6 22.8 .619  67
2023 03 20 08  11 45 46.550   -34 55 50.55  .24451 1.2034 144.6 22.8 .642  67
2023 03 20 09  11 45 48.923   -34 56 42.28  .24456 1.2035 144.6 22.8 .665  67
2023 03 20 10  11 45 51.296   -34 57 33.88  .24461 1.2036 144.6 22.8 .689  66
2023 03 20 11  11 45 53.670   -34 58 25.35  .24466 1.2036 144.6 22.8 .712  66
2023 03 20 12  11 45 56.044   -34 59 16.68  .24471 1.2037 144.6 22.8 .737  66
2023 03 20 13  11 45 58.419   -35 00 07.87  .24476 1.2037 144.6 22.8 .761  66
2023 03 20 14  11 46 00.794   -35 00 58.93  .24481 1.2038 144.6 22.8 .786  66
2023 03 20 15  11 46 03.171   -35 01 49.86  .24486 1.2038 144.6 22.8 .812  66
2023 03 20 16  11 46 05.547   -35 02 40.65  .24491 1.2039 144.6 22.8 .837  66
2023 03 20 17  11 46 07.925   -35 03 31.31  .24496 1.2040 144.6 22.8 .864  66
2023 03 20 18  11 46 10.303   -35 04 21.83  .24501 1.2040 144.6 22.8 .890  66
2023 03 20 19  11 46 12.681   -35 05 12.21  .24506 1.2041 144.6 22.8 .917  65
2023 03 20 20  11 46 15.060   -35 06 02.46  .24512 1.2041 144.6 22.8 .944  65
2023 03 20 21  11 46 17.440   -35 06 52.58  .24517 1.2042 144.6 22.8 .972  65
2023 03 20 22  11 46 19.821   -35 07 42.56  .24522 1.2042 144.6 22.8 1.00  65
2023 03 20 23  11 46 22.202   -35 08 32.41  .24527 1.2043 144.6 22.8 1.03  65
2023 03 21 00  11 46 24.584   -35 09 22.12  .24532 1.2044 144.6 22.8 1.06  65
2023 03 21 01  11 46 26.966   -35 10 11.70  .24537 1.2044 144.6 22.8 1.09  65
2023 03 21 02  11 46 29.349   -35 11 01.14  .24542 1.2045 144.6 22.8 1.12  65
2023 03 21 03  11 46 31.733   -35 11 50.45  .24548 1.2045 144.6 22.8 1.15  65
2023 03 21 04  11 46 34.117   -35 12 39.62  .24553 1.2046 144.6 22.8 1.18  64
2023 03 21 05  11 46 36.502   -35 13 28.66  .24558 1.2046 144.6 22.8 1.21  64
2023 03 21 06  11 46 38.888   -35 14 17.56  .24563 1.2047 144.6 22.8 1.24  64
2023 03 21 07  11 46 41.274   -35 15 06.33  .24569 1.2048 144.6 22.8 1.27  64
2023 03 21 08  11 46 43.661   -35 15 54.97  .24574 1.2048 144.6 22.8 1.30  64
2023 03 21 09  11 46 46.049   -35 16 43.47  .24579 1.2049 144.6 22.8 1.33  64
2023 03 21 10  11 46 48.438   -35 17 31.83  .24584 1.2049 144.6 22.8 1.37  64
2023 03 21 11  11 46 50.827   -35 18 20.07  .24590 1.2050 144.6 22.8 1.40  64
2023 03 21 12  11 46 53.217   -35 19 08.16  .24595 1.2051 144.6 22.8 1.43  64